Location: Krasnoyarskiy Pitomnik
(51.1333°N, 71.6167°E)
Time: 19:52:38
(UTC+00:00)

Vanguard 3 - All Passes

Search period start: 19 April 2024 00:00
Search period end: 29 April 2024 00:00
Orbit: 510 x 3235 km, 33.3° (Epoch: 18 April)

Date Brightness Start Highest point End Pass type
(mag) Time Alt. Az. Time Alt. Az. Time Alt. Az.
19 Apr - 00:28:22 10° SW 00:35:48 21° S 00:41:03 10° SE daylight
19 Apr - 02:41:56 10° SW 02:46:24 16° SSW 02:49:51 10° SSE daylight
19 Apr - 21:04:05 10° SSE 21:06:21 10° SSE 21:08:28 10° SE visible
19 Apr - 23:09:41 10° SSW 23:18:16 20° SSE 23:24:26 10° SE visible
20 Apr - 01:22:23 10° SW 01:29:31 21° S 01:34:29 10° SE daylight
20 Apr - 03:38:04 10° SW 03:39:35 11° SSW 03:40:57 10° SSW daylight
20 Apr - 21:51:46 10° SSW 22:00:23 18° SSE 22:06:59 10° ESE visible
21 Apr - 00:03:00 10° SW 00:12:12 24° S 00:18:26 10° SE daylight
21 Apr - 02:17:08 10° WSW 02:22:57 18° SSW 02:27:14 10° SSE daylight
21 Apr - 20:35:38 10° S 20:42:16 14° SSE 20:47:54 10° SE visible
21 Apr - 22:43:55 10° SW 22:54:26 24° S 23:01:47 10° ESE visible
22 Apr - 00:57:16 10° WSW 01:05:55 25° S 01:11:45 10° SE daylight
22 Apr - 03:13:01 10° SW 03:16:05 13° SSW 03:18:40 10° S daylight
22 Apr - 21:25:35 10° SSW 21:36:19 21° SSE 21:44:20 10° ESE visible
22 Apr - 23:37:32 10° SW 23:48:24 28° S 23:55:36 10° SE daylight
23 Apr - 01:52:10 10° WSW 01:59:22 21° SSW 02:04:26 10° SSE daylight
23 Apr - 20:08:43 10° S 20:17:58 17° SSE 20:25:37 10° ESE visible
23 Apr - 22:18:08 10° SW 22:30:24 28° S 22:38:51 10° ESE visible
24 Apr - 00:31:59 10° WSW 00:42:10 28° S 00:48:51 10° SE daylight
24 Apr - 02:48:02 10° WSW 02:52:27 14° SSW 02:55:59 10° S daylight
24 Apr - 18:55:56 10° SSE 18:59:36 11° SE 19:03:04 10° SE visible
24 Apr - 20:59:30 10° SSW 21:12:02 25° SSE 21:21:22 10° ESE visible
24 Apr - 23:11:57 10° SW 23:24:24 31° S 23:32:35 10° ESE visible
25 Apr - 01:27:02 10° WSW 01:35:37 23° SSW 01:41:29 10° SSE daylight
25 Apr - 19:42:15 10° S 19:53:28 20° SSE 20:02:42 10° ESE visible
25 Apr - 21:52:21 10° SW 22:06:08 31° S 22:15:43 10° ESE visible
26 Apr - 00:06:33 10° WSW 00:18:12 30° SSW 00:25:47 10° SE daylight
26 Apr - 02:22:56 10° WSW 02:28:40 16° SW 02:33:03 10° S daylight
26 Apr - 18:27:47 10° SSE 18:34:58 13° SE 18:41:33 10° ESE visible
26 Apr - 20:33:32 10° SSW 20:47:31 28° SSE 20:58:06 10° ESE visible
26 Apr - 22:46:19 10° SW 23:00:11 34° S 23:09:24 10° ESE visible
27 Apr - 01:01:44 10° WSW 01:11:40 25° SSW 01:18:23 10° SSE daylight
27 Apr - 19:16:04 10° S 19:28:46 22° SSE 19:39:23 10° ESE visible
27 Apr - 21:26:35 10° SW 21:41:40 34° S 21:52:21 10° ESE visible
27 Apr - 23:41:01 10° WSW 23:54:02 33° SSW 00:02:34 10° SE daylight
28 Apr - 01:57:42 10° WSW 02:04:42 18° SW 02:09:56 10° S daylight
28 Apr - 18:00:55 10° SSE 18:10:08 15° SE 18:18:37 10° ESE visible
28 Apr - 20:07:42 10° SSW 20:22:48 30° SSE 20:34:34 10° ESE visible
28 Apr - 22:20:39 10° WSW 22:35:45 36° S 22:46:00 10° ESE visible
